Time,TemperatureF,DewpointF,PressureIn,WindDirection,WindDirectionDegrees,WindSpeedMPH,WindSpeedGustMPH,Humidity,HourlyPrecipIn,Conditions,Clouds,dailyrainin,SoftwareType,DateUTC
2013-06-15 00:02:00,56.0,55.0,29.90,WSW,258,0.0,1.0,95,0.00,,,0.50,,2013-06-15 04:02:00,
2013-06-15 00:12:00,56.0,55.0,29.90,WSW,258,0.0,1.0,95,0.00,,,0.50,,2013-06-15 04:12:00,
2013-06-15 00:22:00,56.0,55.0,29.91,WSW,258,0.0,1.0,95,0.00,,,0.41,,2013-06-15 04:22:00,
2013-06-15 00:34:00,56.0,55.0,29.90,WSW,258,0.0,1.0,96,0.00,,,0.41,,2013-06-15 04:34:00,
2013-06-15 00:43:00,56.0,55.0,29.90,WSW,258,0.0,2.0,96,0.00,,,0.41,,2013-06-15 04:43:00,
2013-06-15 00:54:00,56.0,55.0,29.90,WSW,258,0.0,2.0,96,0.00,,,0.41,,2013-06-15 04:54:00,
2013-06-15 01:02:00,56.0,55.0,29.90,WSW,258,0.0,1.0,96,0.00,,,0.41,,2013-06-15 05:02:00,
2013-06-15 01:12:00,56.0,55.0,29.91,WSW,258,0.0,1.0,96,0.00,,,0.41,,2013-06-15 05:12:00,
2013-06-15 01:22:00,56.0,55.0,29.91,WSW,258,0.0,1.0,96,0.00,,,0.37,,2013-06-15 05:22:00,
2013-06-15 01:34:00,56.0,55.0,29.91,West,259,1.0,3.0,96,0.00,,,0.37,,2013-06-15 05:34:00,
2013-06-15 01:43:00,56.0,55.0,29.91,West,259,0.0,3.0,96,0.00,,,0.37,,2013-06-15 05:43:00,
2013-06-15 01:52:00,56.0,55.0,29.91,West,259,0.0,1.0,96,0.00,,,0.37,,2013-06-15 05:52:00,
2013-06-15 02:02:00,56.0,55.0,29.91,West,259,0.0,0.0,96,0.00,,,0.37,,2013-06-15 06:02:00,
2013-06-15 02:12:00,56.0,55.0,29.91,West,259,0.0,0.0,96,0.00,,,0.37,,2013-06-15 06:12:00,
2013-06-15 02:24:00,55.0,54.0,29.92,West,259,0.0,1.0,96,0.00,,,0.32,,2013-06-15 06:24:00,
2013-06-15 02:33:00,55.0,54.0,29.92,West,259,0.0,1.0,96,0.00,,,0.32,,2013-06-15 06:33:00,
2013-06-15 02:43:00,55.0,54.0,29.92,West,259,0.0,0.0,96,0.00,,,0.32,,2013-06-15 06:43:00,
2013-06-15 02:53:00,55.0,54.0,29.93,West,259,0.0,0.0,96,0.00,,,0.32,,2013-06-15 06:53:00,
2013-06-15 03:01:00,55.0,54.0,29.93,West,259,0.0,1.0,96,0.00,,,0.32,,2013-06-15 07:01:00,
2013-06-15 03:11:00,55.0,54.0,29.93,West,259,0.0,1.0,96,0.00,,,0.32,,2013-06-15 07:11:00,
2013-06-15 03:23:00,55.0,54.0,29.93,West,259,0.0,2.0,96,0.00,,,0.29,,2013-06-15 07:23:00,
2013-06-15 03:33:00,56.0,55.0,29.93,West,259,0.0,1.0,96,0.00,,,0.29,,2013-06-15 07:33:00,
2013-06-15 03:43:00,55.0,54.0,29.93,West,259,0.0,1.0,96,0.00,,,0.29,,2013-06-15 07:43:00,
2013-06-15 03:53:00,55.0,54.0,29.92,West,259,0.0,1.0,95,0.00,,,0.29,,2013-06-15 07:53:00,
2013-06-15 04:02:00,55.0,54.0,29.92,West,259,0.0,0.0,96,0.00,,,0.29,,2013-06-15 08:02:00,
2013-06-15 04:11:00,55.0,54.0,29.92,West,259,0.0,0.0,96,0.00,,,0.29,,2013-06-15 08:11:00,
2013-06-15 04:22:00,55.0,54.0,29.92,West,259,0.0,0.0,96,0.00,,,0.27,,2013-06-15 08:22:00,
2013-06-15 04:33:00,54.0,53.0,29.93,West,259,0.0,0.0,96,0.00,,,0.27,,2013-06-15 08:33:00,
2013-06-15 04:43:00,54.0,53.0,29.93,West,259,0.0,0.0,96,0.00,,,0.27,,2013-06-15 08:43:00,
2013-06-15 04:53:00,54.0,53.0,29.93,West,259,0.0,0.0,96,0.00,,,0.27,,2013-06-15 08:53:00,
2013-06-15 05:02:00,54.0,53.0,29.93,West,259,0.0,0.0,96,0.00,,,0.27,,2013-06-15 09:02:00,
2013-06-15 05:12:00,54.0,53.0,29.93,West,259,0.0,0.0,96,0.00,,,0.27,,2013-06-15 09:12:00,
2013-06-15 05:22:00,54.0,53.0,29.93,West,259,0.0,1.0,96,0.00,,,0.27,,2013-06-15 09:22:00,
2013-06-15 05:33:00,54.0,53.0,29.93,West,259,0.0,1.0,96,0.00,,,0.27,,2013-06-15 09:33:00,
2013-06-15 05:43:00,54.0,53.0,29.94,West,259,0.0,2.0,97,0.00,,,0.27,,2013-06-15 09:43:00,
2013-06-15 05:52:00,55.0,54.0,29.94,West,259,0.0,1.0,97,0.00,,,0.27,,2013-06-15 09:52:00,
2013-06-15 06:02:00,55.0,54.0,29.94,West,259,0.0,1.0,97,0.00,,,0.27,,2013-06-15 10:02:00,
2013-06-15 06:12:00,55.0,54.0,29.93,West,259,0.0,1.0,97,0.00,,,0.27,,2013-06-15 10:12:00,
2013-06-15 06:23:00,55.0,54.0,29.94,West,259,0.0,1.0,97,0.00,,,0.27,,2013-06-15 10:23:00,
2013-06-15 06:34:00,55.0,54.0,29.94,West,259,0.0,1.0,97,0.00,,,0.27,,2013-06-15 10:34:00,
2013-06-15 06:44:00,56.0,55.0,29.95,West,259,0.0,2.0,97,0.00,,,0.27,,2013-06-15 10:44:00,
2013-06-15 06:53:00,56.0,55.0,29.95,West,259,0.0,2.0,97,0.01,,,0.28,,2013-06-15 10:53:00,
2013-06-15 07:02:00,56.0,55.0,29.95,West,259,1.0,3.0,97,0.01,,,0.28,,2013-06-15 11:02:00,
2013-06-15 07:12:00,57.0,56.0,29.96,West,274,1.0,5.0,97,0.01,,,0.28,,2013-06-15 11:12:00,
2013-06-15 07:22:00,57.0,56.0,29.96,West,274,0.0,3.0,96,0.01,,,0.28,,2013-06-15 11:22:00,
2013-06-15 07:33:00,58.0,57.0,29.96,West,275,1.0,4.0,95,0.01,,,0.28,,2013-06-15 11:33:00,
2013-06-15 07:43:00,59.0,57.0,29.96,WNW,288,1.0,3.0,93,0.01,,,0.28,,2013-06-15 11:43:00,
2013-06-15 07:53:00,59.0,57.0,29.96,WNW,288,0.0,4.0,92,0.00,,,0.28,,2013-06-15 11:53:00,
2013-06-15 08:02:00,60.0,57.0,29.96,WNW,288,0.0,3.0,90,0.00,,,0.28,,2013-06-15 12:02:00,
2013-06-15 08:12:00,61.0,57.0,29.96,WNW,297,0.0,4.0,88,0.00,,,0.28,,2013-06-15 12:12:00,
2013-06-15 08:22:00,61.0,57.0,29.96,North,5,1.0,5.0,87,0.00,,,0.28,,2013-06-15 12:22:00,
2013-06-15 08:33:00,62.0,57.0,29.98,WNW,295,1.0,6.0,85,0.00,,,0.28,,2013-06-15 12:33:00,
2013-06-15 08:43:00,63.0,59.0,29.99,WNW,282,0.0,6.0,86,0.00,,,0.28,,2013-06-15 12:43:00,
2013-06-15 08:52:00,63.0,57.0,30.00,NW,310,1.0,7.0,82,0.00,,,0.28,,2013-06-15 12:52:00,
2013-06-15 09:02:00,64.0,58.0,30.00,NNE,13,1.0,6.0,80,0.00,,,0.28,,2013-06-15 13:02:00,
2013-06-15 09:11:00,64.0,58.0,30.00,NW,316,1.0,11.0,80,0.00,,,0.28,,2013-06-15 13:11:00,
2013-06-15 09:22:00,64.0,57.0,30.01,WSW,254,0.0,7.0,79,0.00,,,0.28,,2013-06-15 13:22:00,
2013-06-15 09:32:00,65.0,58.0,30.01,NW,323,1.0,7.0,77,0.00,,,0.28,,2013-06-15 13:32:00,
2013-06-15 09:43:00,66.0,57.0,30.01,NE,39,2.0,10.0,74,0.00,,,0.28,,2013-06-15 13:43:00,
2013-06-15 09:53:00,66.0,58.0,30.01,North,11,0.0,9.0,76,0.00,,,0.28,,2013-06-15 13:53:00,
2013-06-15 10:02:00,66.0,56.0,30.00,North,5,1.0,9.0,71,0.00,,,0.28,,2013-06-15 14:02:00,
2013-06-15 10:12:00,67.0,58.0,30.00,NW,321,1.0,9.0,72,0.00,,,0.28,,2013-06-15 14:12:00,
2013-06-15 10:22:00,68.0,57.0,29.99,NNE,32,4.0,8.0,67,0.00,,,0.28,,2013-06-15 14:22:00,
2013-06-15 10:34:00,68.0,57.0,29.99,East,101,2.0,10.0,67,0.00,,,0.28,,2013-06-15 14:34:00,
2013-06-15 10:43:00,69.0,55.0,29.99,NNW,346,3.0,10.0,61,0.00,,,0.28,,2013-06-15 14:43:00,
2013-06-15 10:53:00,69.0,53.0,29.99,ESE,107,3.0,11.0,56,0.00,,,0.28,,2013-06-15 14:53:00,
2013-06-15 11:02:00,70.0,55.0,29.99,NE,38,3.0,9.0,58,0.00,,,0.28,,2013-06-15 15:02:00,
2013-06-15 11:11:00,70.0,54.0,29.99,East,94,2.0,7.0,57,0.00,,,0.28,,2013-06-15 15:11:00,
2013-06-15 11:22:00,71.0,54.0,29.99,NE,49,6.0,10.0,55,0.00,,,0.28,,2013-06-15 15:22:00,
2013-06-15 11:33:00,71.0,54.0,29.99,ENE,63,3.0,9.0,56,0.00,,,0.28,,2013-06-15 15:33:00,
2013-06-15 11:43:00,72.0,54.0,29.99,NW,313,2.0,5.0,54,0.00,,,0.28,,2013-06-15 15:43:00,
2013-06-15 11:53:00,72.0,55.0,29.99,WNW,303,1.0,11.0,55,0.00,,,0.28,,2013-06-15 15:53:00,
2013-06-15 12:01:00,73.0,54.0,29.99,NW,310,1.0,6.0,52,0.00,,,0.28,,2013-06-15 16:01:00,
2013-06-15 12:12:00,72.0,55.0,29.99,SW,236,2.0,10.0,55,0.00,,,0.28,,2013-06-15 16:12:00,
2013-06-15 12:22:00,73.0,54.0,29.98,NE,44,1.0,5.0,51,0.00,,,0.28,,2013-06-15 16:22:00,
2013-06-15 12:33:00,73.0,54.0,29.98,NE,44,1.0,5.0,51,0.00,,,0.28,,2013-06-15 16:33:00,
2013-06-15 12:43:00,74.0,54.0,29.98,NE,40,3.0,7.0,49,0.00,,,0.28,,2013-06-15 16:43:00,
2013-06-15 12:53:00,74.0,54.0,29.98,WNW,288,0.0,6.0,49,0.00,,,0.28,,2013-06-15 16:53:00,
2013-06-15 13:02:00,74.0,54.0,29.97,West,276,6.0,10.0,49,0.00,,,0.28,,2013-06-15 17:02:00,
2013-06-15 13:12:00,74.0,55.0,29.97,West,261,0.0,9.0,52,0.00,,,0.28,,2013-06-15 17:12:00,
2013-06-15 13:22:00,74.0,54.0,29.96,SW,221,5.0,10.0,50,0.00,,,0.28,,2013-06-15 17:22:00,
2013-06-15 13:32:00,74.0,55.0,29.96,NW,313,2.0,11.0,52,0.00,,,0.28,,2013-06-15 17:32:00,
2013-06-15 13:43:00,74.0,54.0,29.96,NNE,30,0.0,11.0,50,0.00,,,0.28,,2013-06-15 17:43:00,
2013-06-15 13:52:00,75.0,56.0,29.97,NNE,22,1.0,9.0,52,0.00,,,0.28,,2013-06-15 17:52:00,
2013-06-15 14:01:00,76.0,56.0,29.96,SW,229,4.0,9.0,50,0.00,,,0.28,,2013-06-15 18:01:00,
2013-06-15 14:12:00,76.0,55.0,29.96,NNE,21,4.0,15.0,49,0.00,,,0.28,,2013-06-15 18:12:00,
2013-06-15 14:22:00,76.0,55.0,29.96,South,174,0.0,6.0,49,0.00,,,0.28,,2013-06-15 18:22:00,
2013-06-15 14:32:00,75.0,55.0,29.96,WNW,294,0.0,6.0,49,0.00,,,0.28,,2013-06-15 18:32:00,
2013-06-15 14:43:00,76.0,54.0,29.96,WSW,256,3.0,7.0,46,0.00,,,0.28,,2013-06-15 18:43:00,
2013-06-15 14:53:00,77.0,54.0,29.95,West,264,4.0,9.0,45,0.00,,,0.28,,2013-06-15 18:53:00,
2013-06-15 15:02:00,77.0,54.0,29.95,North,355,3.0,10.0,45,0.00,,,0.28,,2013-06-15 19:02:00,
2013-06-15 15:12:00,77.0,53.0,29.95,WNW,288,5.0,10.0,44,0.00,,,0.28,,2013-06-15 19:12:00,
2013-06-15 15:22:00,78.0,52.0,29.94,NE,54,3.0,6.0,41,0.00,,,0.28,,2013-06-15 19:22:00,
2013-06-15 15:33:00,78.0,52.0,29.95,NNE,18,5.0,11.0,40,0.00,,,0.28,,2013-06-15 19:33:00,
2013-06-15 15:43:00,77.0,51.0,29.95,NNE,31,4.0,12.0,40,0.00,,,0.28,,2013-06-15 19:43:00,
2013-06-15 15:52:00,77.0,51.0,29.93,NE,41,2.0,12.0,41,0.00,,,0.28,,2013-06-15 19:52:00,
2013-06-15 16:02:00,78.0,52.0,29.93,NW,314,3.0,7.0,41,0.00,,,0.28,,2013-06-15 20:02:00,
2013-06-15 16:11:00,77.0,53.0,29.93,NNW,345,4.0,8.0,43,0.00,,,0.24,,2013-06-15 20:11:00,
2013-06-15 16:22:00,77.0,53.0,29.93,WNW,284,4.0,8.0,43,0.00,,,0.24,,2013-06-15 20:22:00,
2013-06-15 16:33:00,77.0,53.0,29.93,WNW,290,1.0,6.0,43,0.00,,,0.24,,2013-06-15 20:33:00,
2013-06-15 16:43:00,78.0,54.0,29.93,NW,319,2.0,9.0,43,0.00,,,0.24,,2013-06-15 20:43:00,
2013-06-15 16:53:00,78.0,54.0,29.93,North,10,3.0,9.0,43,0.00,,,0.24,,2013-06-15 20:53:00,
2013-06-15 17:02:00,77.0,52.0,29.93,North,355,3.0,9.0,42,0.00,,,0.24,,2013-06-15 21:02:00,
2013-06-15 17:12:00,77.0,51.0,29.93,NW,318,2.0,9.0,41,0.00,,,0.24,,2013-06-15 21:12:00,
2013-06-15 17:22:00,78.0,52.0,29.93,NW,313,3.0,5.0,41,0.00,,,0.11,,2013-06-15 21:22:00,
2013-06-15 17:34:00,77.0,51.0,29.93,West,269,0.0,6.0,41,0.00,,,0.11,,2013-06-15 21:34:00,
2013-06-15 17:42:00,77.0,56.0,29.93,NW,321,1.0,6.0,49,0.00,,,0.11,,2013-06-15 21:42:00,
2013-06-15 17:52:00,77.0,51.0,29.93,NW,308,1.0,6.0,41,0.00,,,0.11,,2013-06-15 21:52:00,
2013-06-15 18:01:00,78.0,51.0,29.93,NW,308,1.0,3.0,39,0.00,,,0.11,,2013-06-15 22:01:00,
2013-06-15 18:11:00,77.0,51.0,29.93,West,275,5.0,12.0,41,0.00,,,0.03,,2013-06-15 22:11:00,
2013-06-15 18:22:00,77.0,52.0,29.93,SW,230,3.0,12.0,42,0.00,,,0.03,,2013-06-15 22:22:00,
2013-06-15 18:33:00,77.0,53.0,29.93,NW,309,2.0,5.0,44,0.00,,,0.03,,2013-06-15 22:33:00,
2013-06-15 18:43:00,77.0,52.0,29.93,NNW,348,2.0,6.0,42,0.00,,,0.03,,2013-06-15 22:43:00,
2013-06-15 18:53:00,76.0,52.0,29.93,West,276,1.0,7.0,44,0.00,,,0.03,,2013-06-15 22:53:00,
2013-06-15 19:02:00,76.0,53.0,29.93,West,274,0.0,3.0,45,0.00,,,0.03,,2013-06-15 23:02:00,
2013-06-15 19:12:00,74.0,54.0,29.93,West,273,0.0,3.0,50,0.00,,,0.03,,2013-06-15 23:12:00,
2013-06-15 19:22:00,74.0,56.0,29.94,West,273,0.0,3.0,54,0.00,,,0.02,,2013-06-15 23:22:00,
2013-06-15 19:33:00,72.0,56.0,29.93,West,273,0.0,1.0,57,0.00,,,0.02,,2013-06-15 23:33:00,
2013-06-15 19:42:00,71.0,56.0,29.93,West,273,0.0,1.0,59,0.00,,,0.02,,2013-06-15 23:42:00,
2013-06-15 19:53:00,70.0,56.0,29.93,West,273,0.0,0.0,61,0.00,,,0.02,,2013-06-15 23:53:00,
2013-06-15 20:02:00,69.0,56.0,29.94,West,273,0.0,0.0,64,0.00,,,0.02,,2013-06-16 00:02:00,
2013-06-15 20:12:00,68.0,55.0,29.94,West,273,0.0,0.0,64,0.00,,,0.02,,2013-06-16 00:12:00,
2013-06-15 20:22:00,68.0,56.0,29.95,West,273,0.0,0.0,66,0.00,,,0.02,,2013-06-16 00:22:00,
2013-06-15 20:34:00,67.0,56.0,29.95,West,273,0.0,0.0,67,0.00,,,0.02,,2013-06-16 00:34:00,
2013-06-15 20:43:00,67.0,56.0,29.95,West,273,0.0,0.0,67,0.00,,,0.02,,2013-06-16 00:43:00,
2013-06-15 20:52:00,66.0,56.0,29.96,West,273,0.0,0.0,71,0.00,,,0.02,,2013-06-16 00:52:00,
2013-06-15 21:02:00,65.0,56.0,29.96,West,273,0.0,0.0,72,0.00,,,0.02,,2013-06-16 01:02:00,
2013-06-15 21:12:00,65.0,56.0,29.96,West,273,0.0,0.0,74,0.00,,,0.02,,2013-06-16 01:12:00,
2013-06-15 21:22:00,64.0,56.0,29.96,West,273,0.0,0.0,74,0.00,,,0.01,,2013-06-16 01:22:00,
2013-06-15 21:33:00,64.0,56.0,29.96,West,273,0.0,0.0,75,0.00,,,0.01,,2013-06-16 01:33:00,
2013-06-15 21:42:00,63.0,55.0,29.96,West,273,0.0,0.0,75,0.00,,,0.01,,2013-06-16 01:42:00,
2013-06-15 21:53:00,63.0,56.0,29.96,West,273,0.0,0.0,77,0.00,,,0.01,,2013-06-16 01:53:00,
2013-06-15 22:02:00,62.0,55.0,29.97,West,273,0.0,0.0,79,0.00,,,0.01,,2013-06-16 02:02:00,
2013-06-15 22:12:00,62.0,55.0,29.97,West,273,0.0,0.0,79,0.00,,,0.01,,2013-06-16 02:12:00,
2013-06-15 22:22:00,62.0,56.0,29.98,West,273,0.0,0.0,80,0.00,,,0.01,,2013-06-16 02:22:00,
2013-06-15 22:33:00,62.0,56.0,29.98,West,273,0.0,0.0,80,0.00,,,0.01,,2013-06-16 02:33:00,
2013-06-15 22:43:00,61.0,55.0,29.98,West,273,0.0,0.0,82,0.00,,,0.01,,2013-06-16 02:43:00,
2013-06-15 22:53:00,61.0,55.0,29.98,West,273,0.0,0.0,82,0.00,,,0.01,,2013-06-16 02:53:00,
2013-06-15 23:02:00,61.0,56.0,29.98,West,273,0.0,0.0,83,0.00,,,0.01,,2013-06-16 03:02:00,
2013-06-15 23:12:00,60.0,55.0,29.98,West,273,0.0,1.0,83,0.00,,,0.01,,2013-06-16 03:12:00,
2013-06-15 23:22:00,60.0,54.0,29.98,West,273,0.0,0.0,82,0.00,,,0.01,,2013-06-16 03:22:00,
2013-06-15 23:34:00,60.0,54.0,29.98,West,273,0.0,1.0,80,0.00,,,0.01,,2013-06-16 03:34:00,
2013-06-15 23:43:00,60.0,54.0,29.98,West,273,0.0,1.0,80,0.00,,,0.01,,2013-06-16 03:43:00,
2013-06-15 23:53:00,60.0,54.0,29.99,West,273,0.0,0.0,80,0.00,,,0.01,,2013-06-16 03:53:00,